Regional Weather Roundup
Issued by NWS

Home | Current Version | Previous Version | Graphics & Text | Print | Product List | Glossary On
Versions: 1 2 3 4 5 6 7 8 9 10 11 12 13 14 15 16 17 18 19 20 21 22 23 24 25 26 27 28 29 30 31 32 33 34 35 36 37 38 39 40 41 42 43 44 45 46 47 48 49 50
177
ASUS43 KLSX 190907
RWRMO

WEATHER SUMMARY FOR MISSOURI
NATIONAL WEATHER SERVICE SPRINGFIELD MO
300 AM CST THU JAN 19 2017

NOTE: "FAIR" INDICATES FEW OR NO CLOUDS BELOW 12,000 FEET WITH NO
       SIGNIFICANT WEATHER AND/OR OBSTRUCTIONS TO VISIBILITY.
       CURRENT SKY AND/OR WEATHER CONDITIONS ARE NOT AVAILABLE FOR
       CHILLICOTHE AND FARMINGTON.

MOZ001>031-035>038-043-044-053-054-191000-
...NORTHERN AND WESTERN MISSOURI...

CITY           SKY/WX    TMP DP  RH WIND       PRES   REMARKS
KANSAS CTY INT CLOUDY    43  37  79 SE7       29.89F
KANSAS C DTWN  CLOUDY    44  41  89 E5        29.90F
LEE`S SUMMIT   CLOUDY    43  41  93 SE6       29.90F
ST JOSEPH      CLOUDY    38  38 100 CALM      29.89F
CHILLICOTHE      N/A     39  37  92 CALM      29.93F
KIRKSVILLE     PTCLDY    34  33  96 E3        29.94F

$$
MOZ066>068-077>081-088>096-101>105-191000-
...SOUTHWEST MISSOURI...

CITY           SKY/WX    TMP DP  RH WIND       PRES   REMARKS
SPRINGFIELD    CLOUDY    44  42  93 S12       29.90F
JOPLIN         CLOUDY    47  45  93 S5        29.91F
BRANSON        FOG       41  41 100 SE9       29.91F VSB 1/2

$$
MOZ032>034-039>042-045>050-055>058-069>072-191000-
...CENTRAL MISSOURI...

CITY           SKY/WX    TMP DP  RH WIND       PRES   REMARKS
COLUMBIA       LGT RAIN  43  43 100 SE7       29.94F FOG
JEFFERSON CITY LGT RAIN  44  42  93 E8        29.95F
ROLLA          CLOUDY    42  42 100 SE5       29.93F
SEDALIA        CLOUDY    47  44  90 SE5       29.93F
WHITEMAN AFB   CLOUDY    46  46 100 S7        29.91F
WARRENSBURG    CLOUDY    43  37  81 CALM      29.92F
OSAGE BEACH    CLOUDY    44  42  93 SE5       29.94F

$$
MOZ051-052-059>065-191000-
...EAST CENTRAL MISSOURI...

CITY           SKY/WX    TMP DP  RH WIND       PRES   REMARKS
ST LOUIS INTL  CLOUDY    44  38  79 SE6       30.01F
SPIRIT OF STL  LGT RAIN  43  39  86 E5        30.00F
ST CHARLES     CLOUDY    42  40  92 E6        30.01F

$$
MOZ072>076-082>087-097>100-106>115-191000-
...SOUTH CENTRAL AND SOUTHEAST MISSOURI...

CITY           SKY/WX    TMP DP  RH WIND       PRES   REMARKS
CAPE GIRARDEAU CLOUDY    44  41  89 NE6       30.02F FOG
FARMINGTON     LGT RAIN  41  40  96 CALM      30.00F FOG
POPLAR BLUFF   CLOUDY    43  43 100 NE6       30.00F FOG
WEST PLAINS    FOG       41  41 100 E5        29.96F VSB 1

$$



USA.gov is the U.S. government's official web portal to all federal, state and local government web resources and services.